Location: C.E.K. Mees Observatory
(42.7003°N, 77.4088°W)
Time: 02:52:29
(UTC-04:00)

Vanguard 3 - Visible Passes

Search period start: 21 October 2017 00:00
Search period end: 31 October 2017 00:00
Orbit: 510 x 3263 km, 33.3° (Epoch: 20 October)

Date Brightness Start Highest point End Pass type
(mag) Time Alt. Az. Time Alt. Az. Time Alt. Az.
21 Oct 10.7 02:42:14 19° SE 02:42:14 19° SE 02:47:50 10° ESE visible
21 Oct 9.7 04:46:50 26° SSW 04:53:06 37° SSE 05:01:30 10° E visible
21 Oct 9.0 06:54:52 10° WSW 07:05:58 45° S 07:12:23 10° ESE visible
22 Oct 10.2 03:37:23 32° SSE 03:38:14 32° SSE 03:47:46 10° E visible
22 Oct 9.3 05:41:59 18° SW 05:51:47 46° S 05:59:35 10° ESE visible
23 Oct 10.7 02:27:52 21° SE 02:27:52 21° SE 02:33:09 10° ESE visible
23 Oct 9.7 04:32:27 35° SSW 04:37:07 43° SSE 04:46:23 10° E visible
23 Oct 9.1 06:37:58 10° WSW 06:50:16 49° S 06:57:17 10° ESE visible
24 Oct 10.1 03:22:53 37° SSE 03:22:53 37° SSE 03:32:40 10° E visible
24 Oct 9.3 05:27:28 25° SW 05:35:54 50° S 05:44:27 10° ESE visible
25 Oct 10.7 02:13:16 22° ESE 02:13:16 22° ESE 02:18:08 10° E visible
25 Oct 9.7 04:17:51 43° SSW 04:21:00 48° SSE 04:31:11 10° E visible
25 Oct 9.2 06:22:26 13° WSW 06:34:27 51° S 06:42:08 10° ESE visible
26 Oct 10.1 03:08:11 40° SE 03:08:11 40° SE 03:17:23 10° E visible
26 Oct 9.4 05:12:46 33° SW 05:19:53 54° S 05:29:13 10° ESE visible
27 Oct 10.7 01:58:29 22° ESE 01:58:29 22° ESE 02:02:51 10° E visible
27 Oct 9.7 04:03:04 50° S 04:04:45 52° S 04:15:51 10° E visible
27 Oct 9.3 06:07:39 19° WSW 06:18:33 52° S 06:26:55 10° ESE visible
28 Oct 10.1 02:53:21 40° SE 02:53:21 40° SE 03:01:58 10° E visible
28 Oct 9.4 04:57:55 40° SW 05:03:46 57° S 05:13:54 10° ESE visible
28 Oct 9.3 07:04:12 10° W 07:16:47 42° SSW 07:24:11 10° SE visible
29 Oct 10.8 01:43:36 21° ESE 01:43:36 21° ESE 01:47:21 10° E visible
29 Oct 9.7 03:48:10 55° S 03:48:23 55° S 04:00:26 10° E visible
29 Oct 9.4 05:52:44 24° WSW 06:02:30 53° SSW 06:11:37 10° ESE visible
30 Oct 10.2 02:38:25 39° ESE 02:38:25 39° ESE 02:46:24 10° E visible
30 Oct 9.5 04:43:00 47° SW 04:47:31 58° S 04:58:32 10° ESE visible
30 Oct 9.5 06:47:33 11° W 07:00:45 42° SSW 07:08:48 10° SE visible
